User: anonymous   Login
Location: Unspecified
(0.0000°N, 0.0000°E)
Time: 18:24:45
(UTC+00:00)
Language:

DUCHIFAT 1 - Orbit

View from above orbital plane
View from above orbital plane
View from above satellite
View from above satellite

Ground track
Ground track

The orbit data is extracted from the following two-line orbital elements,

1 40021U 14033M   18174.63833923 +.00000381 +00000-0 +45073-4 0  9991
2 40021 097.9163 093.3693 0013493 151.0675 209.1293 14.90320967217919
Epoch (UTC): 23 June 2018 15:19:12
Eccentricity: 0.0013493
inclination: 97.9163°
perigee height: 587 km
apogee height: 606 km
right ascension of ascending node: 93.3693°
argument of perigee: 151.0675°
revolutions per day: 14.90320967
mean anomaly at epoch: 209.1293°
orbit number at epoch: 21791

The dashed part of the orbit path shows where the satellite is in the earth's shadow,  

DLR